Location: Poughquag
(41.6090°N, 73.6820°W)
Time: 15:45:04
(UTC-04:00)

STARLINK-1340 - Pass Details

Date: 29 May 2020
Orbit: 548 x 551 km, 53.0° (Epoch: 30 October)

Event Time Altitude Azimuth Distance (km) Brightness Sun altitude
Rises 04:42:25 0° 310° (NW) 2,730 7.0 -7.3°
Reaches altitude 10° 04:44:56 10° 323° (NW) 1,835 6.3 -6.9°
Maximum altitude 04:48:30 27° 22° (NNE) 1,093 5.9 -6.4°
Drops below altitude 10° 04:52:04 10° 80° (E) 1,832 7.5 -5.9°
Sets 04:54:34 0° 93° (E) 2,725 8.1 -5.5°
